Starlink 31307

operational
NORAD ID: 59089 Int'l Des: 2024-041 Owner: SPXS Country: US Constellation: starlink
LEOCIRCULAR

关于 Starlink 31307

正在加载描述...

实时位置

正在加载3D地球...

即将过境

高度历史

Altitude vs Time

uPlot chart will show altitude changes over time

两行轨道根数

1 59089U 24041R 25302.98257400 -.00001146 00000-0 -32157-4 0 9995
2 59089 43.0030 328.6920 0001086 280.2043 79.8686 15.27569402 94331
Epoch: Oct 29, 2025 • Age: 25 hours

当前状态

高度 486.9 km
速度 7.63 km/s
星下点 43.06°N, 7.8°W
发射日期 Feb 29, 2024
运行时间 1.6 years
类型 internet

技术详情

分类 Payload
质量 730.00 kg
干质量 700.00 kg
总质量 730.00 kg
长度 0.30 m
直径 4.10 m
跨度 29.00 m
形状 Box + pan
制造商 SPXS
平台类型 Starlink V2M
阶段状态 In Orbit
所有者/国家 SPXS/US

大型星座

Loading constellations...